Iliamna, AK

4:08 PM AKDT on March 29, 2017 (GMT -0800)
Iliamna

Weather History for PAIL - August, 2013

Change the Weather History Date:

Tuesday, August 13, 2013

  Actual Average Record
Temperature  
Mean Temperature 56 °F -  
Max Temperature 61 °F 61 °F 77 °F (1950)
Min Temperature 53 °F 48 °F 39 °F (1973)
Degree Days  
Heating Degree Days 8    
Growing Degree Days 6 (Base 50)    
Moisture  
Dew Point 53 °F    
Average Humidity 89    
Maximum Humidity 100    
Minimum Humidity 72    
Precipitation  
Precipitation 0.02 in - - ()
Sea Level Pressure  
Sea Level Pressure 29.99 in    
Wind  
Wind Speed 3 mph (ESE)    
Max Wind Speed 20 mph    
Max Gust Speed 24 mph    
Visibility 10 miles    
Events Rain    
Averages and records for this station are not official NWS values.
T = Trace of Precipitation, MM = Missing Value Source: NWS Daily Summary

Daily Weather History Graph

Daily Weather History Graph

Search for Another Location

Airport or City:

Trip Planner

Search our weather history database for the weather conditions in past years. The results will help you decide how hot, cold, wet, or windy it might be!

Date:

Astronomy

Aug. 13, 2013 Rise Set
Actual Time 6:31 AM AKDT 10:15 PM AKDT
Civil Twilight 5:39 AM AKDT 11:06 PM AKDT
Nautical Twilight 4:22 AM AKDT 12:22 AM AKDT
Astronomical Twilight 2:56 AM AKDT 1:51 AM AKDT
Moon 3:42 PM AKDT (8/13) 11:52 PM AKDT (8/13)
Length of Visible Light 17h 26m
Length of Day
15h 44m
Waxing Crescent, 43% of the Moon is Illuminated
Aug 13
Waxing Crescent
Aug 14
First Quarter
Aug 20
Full
Aug 28
Last Quarter
Sep 5
New

Hourly Weather History & Observations

Time (AKDT) Temp. Dew Point Humidity Pressure Visibility Wind Dir Wind Speed Gust Speed Precip Events Conditions
12:23 AM 55.4 °F 53.6 °F 94% 30.02 in 10.0 mi Calm Calm - N/A   Overcast
12:30 AM 55.4 °F 53.6 °F 94% 30.01 in 10.0 mi Calm Calm - N/A   Overcast
12:41 AM 55.4 °F 53.6 °F 94% 30.01 in 10.0 mi Calm Calm - N/A   Overcast
12:53 AM 55.9 °F 54.0 °F 93% 30.02 in 10.0 mi Calm Calm - N/A   Overcast
1:01 AM 55.4 °F 53.6 °F 94% 30.01 in 10.0 mi Calm Calm - N/A   Overcast
1:12 AM 55.4 °F 53.6 °F 94% 30.01 in 10.0 mi West 3.5 mph - N/A   Overcast
1:53 AM 55.9 °F 54.0 °F 93% 30.01 in 10.0 mi Calm Calm - N/A   Overcast
2:53 AM 55.9 °F 55.0 °F 97% 30.01 in 10.0 mi Calm Calm - N/A   Overcast
3:03 AM 55.4 °F 55.4 °F 100% 30.00 in 10.0 mi Calm Calm - N/A   Overcast
3:18 AM 55.4 °F 55.4 °F 100% 29.99 in 10.0 mi Calm Calm - N/A   Overcast
3:53 AM 55.9 °F 54.0 °F 93% 29.99 in 10.0 mi Calm Calm - N/A   Overcast
4:32 AM 55.4 °F 55.4 °F 100% 29.98 in 10.0 mi Calm Calm - N/A   Overcast
4:53 AM 55.9 °F 55.0 °F 97% 29.98 in 10.0 mi Calm Calm - N/A   Overcast
5:12 AM 55.4 °F 53.6 °F 94% 29.98 in 10.0 mi Calm Calm - N/A   Overcast
5:53 AM 55.0 °F 54.0 °F 96% 29.97 in 10.0 mi Calm Calm - N/A   Overcast
6:45 AM 55.4 °F 53.6 °F 94% 29.97 in 10.0 mi SSW 3.5 mph - 0.00 in Rain Light Rain
6:53 AM 55.9 °F 55.0 °F 97% 29.97 in 10.0 mi SSW 4.6 mph - 0.00 in Rain Light Rain
7:53 AM 54.0 °F 53.1 °F 97% 29.97 in 10.0 mi SSE 8.1 mph - 0.00 in   Overcast
8:21 AM 53.6 °F 51.8 °F 94% 29.97 in 10.0 mi SSE 5.8 mph - N/A   Overcast
8:53 AM 54.0 °F 53.1 °F 97% 29.98 in 10.0 mi Calm Calm - 0.00 in   Overcast
9:53 AM 55.9 °F 53.1 °F 90% 29.98 in 10.0 mi NNE 4.6 mph - 0.00 in Rain Light Rain
10:53 AM 55.9 °F 52.0 °F 87% 29.98 in 10.0 mi SE 10.4 mph - 0.01 in   Overcast
11:53 AM 55.0 °F 51.1 °F 86% 29.99 in 10.0 mi ESE 12.7 mph 19.6 mph 0.01 in Rain Light Rain
12:53 PM 55.9 °F 52.0 °F 87% 29.99 in 10.0 mi East 8.1 mph - 0.00 in   Overcast
1:53 PM 55.9 °F 52.0 °F 87% 29.99 in 10.0 mi ESE 10.4 mph - 0.00 in Rain Light Rain
2:53 PM 57.0 °F 50.0 °F 77% 29.99 in 10.0 mi East 15.0 mph 20.7 mph 0.00 in   Overcast
3:53 PM 60.1 °F 51.1 °F 72% 29.98 in 10.0 mi East 19.6 mph 24.2 mph N/A   Scattered Clouds
4:53 PM 57.9 °F 50.0 °F 75% 29.98 in 10.0 mi East 16.1 mph 24.2 mph N/A   Overcast
5:53 PM 59.0 °F 50.0 °F 72% 29.99 in 10.0 mi East 11.5 mph 20.7 mph N/A   Overcast
6:53 PM 57.9 °F 48.9 °F 72% 29.98 in 10.0 mi ESE 10.4 mph - N/A   Overcast
7:53 PM 57.9 °F 50.0 °F 75% 29.99 in 10.0 mi East 8.1 mph - 0.00 in   Overcast
8:53 PM 57.0 °F 48.9 °F 74% 30.00 in 10.0 mi East 8.1 mph - N/A   Overcast
9:53 PM 55.9 °F 48.9 °F 77% 30.01 in 10.0 mi East 8.1 mph - N/A   Overcast
10:53 PM 55.0 °F 48.9 °F 80% 30.01 in 10.0 mi East 8.1 mph - N/A   Partly Cloudy
11:53 PM 54.0 °F 48.9 °F 83% 30.01 in 10.0 mi East 8.1 mph - N/A   Partly Cloudy